Flag for Russia Weather past 2 weeks in Barnaul, Russia

Now
72 °F

Sunny.


Feels Like: 75 °F
Forecast: 59 / 71 °F
Wind: 8 mph from South

Location: Barnaul Airport

Current Time: Jul 3, 2015 at 6:15:13 AM

Latest Report: Jul 3, 2015 at 5:30 AM


Visibility: 10 mi

Pressure: 29.53 "Hg

Humidity: 65%

Dew point: 59 °F

Location of BarnaulLocation

Historic Weather in Barnaul — Graph

°F

Barnaul temperature yesterday

Maximum temperature yesterday: 90 °F (at 2:00 PM)
Minimum temperature yesterday: 68 °F (at 3:30 AM)
Average temperature yesterday: 80 °F

Past Weeks' High & Low Weather Summary

 TemperatureHumidityPressure
High90 °F (Jul 2, 2:00 PM)83% (Jun 20, 2:00 PM)30.07 "Hg (Jun 20, 2:00 PM)
Low50 °F (Jun 26, 3:00 AM)22% (Jun 30, 5:30 PM)29.56 "Hg (Jul 3, 3:00 AM)
Average70 °F52%29.84 "Hg
* Reported Jun 18 5:00 AM — Jul 3 5:00 AM, Barnaul, Weather by CustomWeather, © 2015

Note: Actual official high and low records may vary slightly from our data, if they occured in-between our weather recording intervals... More about our weather records

Advertising

Barnaul weather history for previous 24 hours

 ConditionsComfort  
Time TempWeatherWind HumidityBarometerVisibility
5:00 AM
Fri, Jul 3
73 °FSunny.8 mph61%29.56 "Hg10 mi
4:30 AM73 °FSunny.8 mph61%29.56 "Hg10 mi
4:00 AM73 °FClear.8 mph61%29.56 "Hg10 mi
3:30 AM75 °FClear.6 mph57%29.56 "Hg10 mi
3:00 AM75 °FClear.6 mph61%29.56 "Hg10 mi
2:30 AM75 °FClear.6 mph61%29.59 "Hg10 mi
2:00 AM77 °FClear.3 mph57%29.59 "Hg10 mi
1:30 AM77 °FClear.3 mph57%29.59 "Hg10 mi
1:00 AM77 °FClear.6 mph57%29.59 "Hg10 mi
12:30 AM77 °FClear.6 mph51%29.62 "Hg10 mi
12:00 AM77 °FClear.3 mph54%29.62 "Hg10 mi
11:30 PM
Thu, Jul 2
79 °FClear.3 mph48%29.62 "Hg10 mi
11:00 PM81 °FClear.3 mph45%29.62 "Hg10 mi
10:30 PM81 °FClear.6 mph42%29.65 "Hg10 mi
10:00 PM82 °FClear.3 mph37%29.65 "Hg10 mi
9:30 PM82 °FClear.3 mph35%29.65 "Hg10 mi
9:00 PM82 °FClear.3 mph37%29.65 "Hg10 mi
8:30 PM84 °FSunny.1 mph37%29.65 "Hg10 mi
8:00 PM86 °FSunny.No wind33%29.68 "Hg10 mi
7:30 PM86 °FSunny.1 mph33%29.68 "Hg10 mi
7:00 PM86 °FSunny.3 mph38%29.65 "Hg10 mi
6:30 PM86 °FSunny.3 mph40%29.65 "Hg10 mi
6:00 PM88 °FPassing clouds.6 mph33%29.68 "HgN/A
5:30 PM88 °FPassing clouds.6 mph33%29.68 "HgN/A
5:00 PMN/APassing clouds.6 mphN/AN/AN/A
4:30 PMN/APassing clouds.3 mphN/AN/AN/A
4:00 PM90 °FPassing clouds.3 mph26%29.71 "HgN/A
3:30 PM90 °FPassing clouds.6 mph27%29.71 "HgN/A
3:00 PM90 °FPassing clouds.6 mph29%29.71 "HgN/A
2:30 PM88 °FPassing clouds.8 mph33%29.71 "HgN/A
2:00 PM90 °FSunny.8 mph27%29.71 "Hg10 mi
1:30 PM88 °FPassing clouds.3 mph31%29.71 "HgN/A
1:00 PM88 °FPassing clouds.3 mph33%29.74 "HgN/A
12:30 PM88 °FSunny.6 mph33%29.74 "Hg10 mi
12:00 PM86 °FPassing clouds.6 mph38%29.74 "HgN/A
11:30 AM86 °FSunny.10 mph35%29.74 "Hg10 mi
11:00 AM86 °FSunny.8 mph33%29.77 "Hg10 mi
10:00 AM82 °FSunny.3 mph51%29.77 "Hg10 mi
9:30 AM82 °FSunny.3 mph42%29.77 "Hg10 mi
9:00 AM81 °FClear.3 mph45%29.77 "HgN/A
8:30 AM81 °FClear.8 mph45%29.77 "HgN/A
8:00 AM79 °FClear.3 mph54%29.77 "HgN/A
7:30 AM77 °FClear.1 mph61%29.80 "HgN/A
7:00 AM73 °FClear.1 mph65%29.80 "HgN/A
6:30 AM72 °FClear.3 mph65%29.77 "HgN/A
6:00 AM72 °FClear.3 mph65%29.77 "HgN/A
Weather by CustomWeather, © 2015

See weather overviewHow to use our weather pages